Regional Weather Roundup
Issued by NWS

Home | Current Version | Previous Version | Text Only | Print | Product List | Glossary Off
Versions: 1 2 3 4 5 6 7 8 9 10 11 12 13 14 15 16 17 18 19 20 21 22 23 24 25 26 27 28 29 30 31 32 33 34 35 36 37 38 39 40 41 42 43 44 45 46 47 48 49 50

000
ASUS45 KBOU 301107
RWRCO

WEATHER ROUNDUP FOR COLORADO
NATIONAL WEATHER SERVICE DENVER/BOULDER CO
500 AM MDT SUN AUG 30 2015

NOTE: "FAIR" INDICATES FEW OR NO CLOUDS BELOW 12000 FEET WITH NO
SIGNIFICANT WEATHER AND/OR OBSTRUCTIONS TO VISIBILITY.

COZ001>005-013-030-031-301200-
...NORTHWEST COLORADO...

CITY           SKY/WX    TMP DP  RH WIND       PRES   REMARKS
CRAIG          PTCLDY    46  40  79 SW5       30.18S
HAYDEN         NOT AVBL
MEEKER         CLEAR     48  40  73 NE3       30.20R
MOUNT WERNER   NOT AVBL
STEAMBOAT SPGS PTCLDY    48  38  69 CALM      30.24S
WALDEN         PTCLDY    37  32  81 E5        30.32S
$$

COZ006>008-011-301200-
...WEST CENTRAL VALLEYS...

CITY           SKY/WX    TMP DP  RH WIND       PRES   REMARKS
GRAND JUNCTION CLEAR     62  41  46 SE12      30.08R
MONTROSE       CLEAR     59  43  55 S6        30.20R
EAGLE          CLEAR     48  39  71 CALM      30.29S
RIFLE          CLEAR     55  43  63 CALM      30.17R
DELTA          CLEAR     60  45  56 E5        30.16R
NUCLA          PTCLDY    61  39  44 MISG      30.23S
$$

COZ017>023-064>068-301200-
...SOUTHWEST COLORADO...

CITY           SKY/WX    TMP DP  RH WIND       PRES   REMARKS
DURANGO        PTCLDY    54  44  69 CALM      30.31R
CORTEZ         MOCLDY    54  46  74 CALM      30.22R
PAGOSA SPRINGS PTCLDY    49  44  85 CALM      30.40R
TELLURIDE      CLEAR     58  38  47 CALM      30.47R
WOLF CREEK PAS CLEAR     43  37  81 SW16      30.69S
$$

COZ009-010-012-014-032>034-037-058>063-301200-
...CENTRAL COLORADO...

CITY           SKY/WX    TMP DP  RH WIND       PRES   REMARKS
ASPEN          CLEAR     51  37  58 S6        30.33R
BUENA VISTA    CLEAR     48  38  68 CALM      30.38S
COPPER MTN     CLEAR     54  28  37 SW10G16   30.64S
BERTHOUD PASS  FAIR      45  32  61 W18G36    30.66S
COTTONWOOD PAS CLEAR     55  36  47 N5        30.49S
GUNNISON       CLEAR     41  36  81 CALM      30.41R
KREMMLING      CLEAR     41  36  81 CALM      30.34R
LEADVILLE      CLEAR     40  37  89 CALM      30.49S
MONARCH PASS   CLEAR     45  36  70 SW15      30.74S
SALIDA         CLEAR     56  42  59 CALM      30.42R
SUNLIGHT       CLEAR     52  32  46 CALM      30.55S
WILKERSON PASS PTCLDY    46  36  66 W8        30.60S
$$

COZ069>075-301200-
...SAN LUIS VALLEY/SANGRE DE CRISTO MOUNTAINS...

CITY           SKY/WX    TMP DP  RH WIND       PRES   REMARKS
ALAMOSA        PTCLDY    51  41  68 E8        30.36S
LA VETA PASS   PTCLDY    48  36  61 S10G22    30.51S
SAGUACHE       PTCLDY    48  41  76 NW7       30.40S
$$

COZ035-036-038>040-301200-
...NORTHERN COLORADO FRONT RANGE...

CITY           SKY/WX    TMP DP  RH WIND       PRES   REMARKS
DENVER INTL AP PTCLDY    66  40  38 SW8       30.09S
DMNS CITY PARK   N/A     65  44  46 SE8       30.10R
AURORA         MOCLDY    67  41  39 S10       30.12S
FRONT RANGE AP NOT AVBL
ERIE MUNI ARPT PTCLDY    55  48  77 CALM      30.08S
BOULDER MUN AP PTCLDY    63  45  51 CALM      30.09S
CENTENNIAL     MOCLDY    63  42  46 CALM      30.14R
BROOMFIELD     PTCLDY    64  43  45 N8        30.12R
FORT COLLINS   CLEAR     55  45  67 NW3       30.09S
LONGMONT       CLEAR     56  46  70 W3        30.10S
$$

COZ041-046-047-076>085-087-088-301200-
...PIKES PEAK/PALMER DIVIDE AND SOUTHERN FOOTHILLS...

CITY           SKY/WX    TMP DP  RH WIND       PRES   REMARKS
COLO. SPRINGS  PTCLDY    55  43  63 N7        30.20F
A. F. ACADEMY  MOCLDY    52  43  69 N8        30.21
ELLICOTT       PTCLDY   N/A N/A N/A NE3       30.19S
FALCON         CLOUDY    55  46  73 MISG      30.25S
FORT CARSON    NOT AVBL
LIMON          PTCLDY    46  44  93 CALM      30.16F
MONUMENT HILL  PTCLDY    59  39  47 SW12      30.24S
TRINIDAD       CLEAR     63  50  62 SW12      30.19R
$$

COZ042>045-048>051-090-091-301200-
...NORTHEAST COLORADO...

CITY           SKY/WX    TMP DP  RH WIND       PRES   REMARKS
GREELEY ARPT   CLEAR     54  45  71 N6        30.06S
AKRON          PTCLDY    63  45  51 S12       30.08S
BURLINGTON     CLEAR     60  46  59 S10       30.11F
WRAY           PTCLDY    64  46  52 W7        30.05F
STERLING       PTCLDY    55  46  71 SW3       30.02F
HOLYOKE        PTCLDY    59  50  72 S8        30.05F
FORT MORGAN    PTCLDY    61  41  48 S5        30.06S
$$

COZ086-089-092>099-301200-
...SOUTHEAST COLORADO...

CITY           SKY/WX    TMP DP  RH WIND       PRES   REMARKS
PUEBLO         PTCLDY    60  45  57 W6        30.10S
LA JUNTA       CLEAR     58  45  62 N3        30.08F
LAMAR          CLEAR     64  47  53 S8        30.07S
SPRINGFIELD    NOT AVBL
$$




USA.gov is the U.S. government's official web portal to all federal, state and local government web resources and services.